Weather History for Melbourne Airport, VC

Change the Weather History Date:

Monday, March 4, 2013

  Actual Average Record
Temperature  
Mean Temperature 72 °F -  
Max Temperature 87 °F 71 °F 93 °F (2004)
Min Temperature 56 °F 51 °F 51 °F (2011)
Cooling Degree Days 6    
Growing Degree Days 22 (Base 50)    
Moisture  
Dew Point 51 °F    
Average Humidity 46    
Maximum Humidity 82    
Minimum Humidity 15    
Precipitation  
Precipitation 0.00 in 0.05 in - ()
Sea Level Pressure  
Sea Level Pressure 30.07 in    
Wind  
Wind Speed 11 mph ()    
Max Wind Speed 21 mph    
Max Gust Speed -    
Averages and records for this station are not official NWS values.
T = Trace of Precipitation, MM = Missing Value Source: Averaged Metar Reports

Daily Weather History Graph

Daily Weather History Graph

Search for Another Location

Airport:

Trip Planner

Search our weather history database for the weather conditions in past years. The results will help you decide how hot, cold, wet, or windy it might be!

Date:

Astronomy

Mar. 04, 2013 Rise Set
Actual Time 7:07 AM AEDT 7:56 PM AEDT
Civil Twilight 6:41 AM AEDT 8:22 PM AEDT
Nautical Twilight 6:09 AM AEDT 8:54 PM AEDT
Astronomical Twilight 5:37 AM AEDT 9:26 PM AEDT
Moon 11:57 PM AEDT (3/4) 1:41 PM AEDT (3/4)
Length of Visible Light 13h 41m
Length of Day
12h 48m
Waning Gibbous, 60% of the Moon is Illuminated
Mar 4
Waning Gibbous
Mar 5
Last Quarter
Mar 12
New
Mar 20
First Quarter
Mar 27
Full

Hourly Weather History & Observations

Time (AEDT) Temp. Dew Point Humidity Pressure Visibility Wind Dir Wind Speed Gust Speed Precip Events Conditions
12:00 AM 63 °F 57 °F 74% 30.09 in 25 mi WNW 9.2 mph - -   Partly Cloudy
12:00 AM 62.6 °F 57.2 °F 82% 30.09 in - WNW 9.2 mph - N/A   Clear
12:30 AM 62.6 °F 57.2 °F 82% 30.09 in - West 9.2 mph - N/A   Clear
1:00 AM 62.6 °F 55.4 °F 77% 30.06 in - West 9.2 mph - N/A   Clear
1:30 AM 60.8 °F 55.4 °F 82% 30.06 in - NW 5.8 mph - N/A   Clear
2:00 AM 60 °F 55 °F 79% 30.07 in - NNW 5.8 mph - -  
2:00 AM 60.8 °F 55.4 °F 82% 30.06 in - NNW 5.8 mph - N/A   Clear
2:30 AM 59.0 °F 53.6 °F 82% 30.06 in - North 6.9 mph - N/A   Clear
3:00 AM 59 °F 53 °F 73% 30.07 in 25 mi North 9.2 mph - -   Partly Cloudy
3:00 AM 59.0 °F 51.8 °F 77% 30.06 in - North 9.2 mph - N/A   Clear
3:30 AM 59.0 °F 51.8 °F 77% 30.06 in - North 9.2 mph - N/A   Clear
4:00 AM 59.0 °F 53.6 °F 82% 30.06 in - North 6.9 mph - N/A   Clear
4:30 AM 62.6 °F 53.6 °F 72% 30.06 in - North 10.4 mph - N/A   Clear
5:00 AM 66 °F 51 °F 48% 30.07 in - North 17.3 mph - -  
5:00 AM 66.2 °F 51.8 °F 60% 30.06 in - North 17.3 mph - N/A   Clear
5:30 AM 66.2 °F 50.0 °F 56% 30.06 in - North 17.3 mph - N/A   Clear
6:00 AM 66 °F 50 °F 47% 30.08 in 25 mi North 15.0 mph - -   Partly Cloudy
6:00 AM 66.2 °F 50.0 °F 56% 30.06 in - North 15.0 mph - N/A   Clear
6:30 AM 66.2 °F 50.0 °F 56% 30.09 in - North 16.1 mph - N/A   Clear
7:00 AM 66.2 °F 50.0 °F 56% 30.09 in - North 15.0 mph - N/A   Clear
7:30 AM 66.2 °F 50.0 °F 56% 30.09 in - North 16.1 mph - N/A   Clear
8:00 AM 68 °F 49 °F 40% 30.12 in - North 18.4 mph - -  
8:00 AM 68.0 °F 50.0 °F 52% 30.12 in - North 18.4 mph - N/A   Clear
8:30 AM 69.8 °F 50.0 °F 49% 30.12 in - North 19.6 mph - N/A   Clear
9:00 AM 73 °F 50 °F 33% 30.14 in 22 mi North 20.7 mph - -   Partly Cloudy
9:00 AM 73.4 °F 50.0 °F 44% 30.12 in - North 20.7 mph - N/A   Clear
9:30 AM 75.2 °F 50.0 °F 41% 30.12 in - North 19.6 mph - N/A   Clear
10:00 AM 77.0 °F 48.2 °F 36% 30.12 in - North 19.6 mph - N/A   Clear
10:30 AM 78.8 °F 48.2 °F 34% 30.12 in - North 19.6 mph - N/A   Clear
11:00 AM 81 °F 48 °F 22% 30.13 in - North 17.3 mph - -  
11:00 AM 80.6 °F 48.2 °F 32% 30.12 in - North 17.3 mph - N/A   Clear
11:30 AM 82.4 °F 46.4 °F 28% 30.12 in - North 15.0 mph - N/A   Clear
12:00 PM 83 °F 46 °F 18% 30.12 in 25 mi North 12.7 mph - -   Partly Cloudy
12:00 PM 84.2 °F 46.4 °F 27% 30.12 in - North 12.7 mph - N/A   Clear
12:30 PM 84.2 °F 48.2 °F 29% 30.09 in - North 10.4 mph - N/A   Clear
1:00 PM 86.0 °F 46.4 °F 25% 30.09 in - NNE 8.1 mph - N/A   Clear
1:30 PM 86.0 °F 44.6 °F 23% 30.09 in - North 8.1 mph - N/A   Clear
2:00 PM 86 °F 46 °F 16% 30.08 in - NNE 6.9 mph - -  
2:00 PM 86.0 °F 46.4 °F 25% 30.06 in - NNE 6.9 mph - N/A   Clear
2:30 PM 86.0 °F 46.4 °F 25% 30.06 in - East 8.1 mph - N/A   Clear
3:00 PM 87 °F 46 °F 15% 30.05 in 22 mi East 8.1 mph - -   Partly Cloudy
3:00 PM 87.8 °F 46.4 °F 24% 30.04 in - East 8.1 mph - N/A   Clear
3:30 PM 87.8 °F 44.6 °F 22% 30.04 in - ESE 8.1 mph - N/A   Clear
4:00 PM 87.8 °F 46.4 °F 24% 30.04 in - SE 8.1 mph - N/A   Clear
4:30 PM 87.8 °F 48.2 °F 25% 30.01 in - South 12.7 mph - N/A   Clear
5:00 PM 87 °F 48 °F 17% 30.02 in - SE 13.8 mph - -  
5:00 PM 87.8 °F 48.2 °F 25% 30.01 in - SE 13.8 mph - N/A   Clear
5:30 PM 86.0 °F 50.0 °F 29% 30.01 in - SSE 19.6 mph - N/A   Clear
6:00 PM 85 °F 50 °F 19% 30.01 in 25 mi SSE 18.4 mph - -   Partly Cloudy
6:00 PM 86.0 °F 50.0 °F 29% 30.01 in - SSE 18.4 mph - N/A   Clear
6:30 PM 84.2 °F 48.2 °F 29% 30.01 in - South 15.0 mph - N/A   Clear
7:00 PM 80.6 °F 50.0 °F 34% 30.01 in - South 16.1 mph - N/A   Clear
7:30 PM 78.8 °F 51.8 °F 39% 30.01 in - SSE 17.3 mph - N/A   Clear
8:00 PM 77 °F 55 °F 36% 30.03 in - South 12.7 mph - -  
8:00 PM 77.0 °F 55.4 °F 47% 30.04 in - South 12.7 mph - N/A   Clear
8:30 PM 75.2 °F 53.6 °F 47% 30.04 in - South 11.5 mph - N/A   Clear
9:00 PM 74 °F 51 °F 33% 30.05 in 25 mi SSE 10.4 mph - -   Partly Cloudy
9:00 PM 73.4 °F 50.0 °F 44% 30.04 in - SSE 10.4 mph - N/A   Clear
9:30 PM 71.6 °F 51.8 °F 50% 30.04 in - South 8.1 mph - N/A   Clear
10:00 PM 68.0 °F 51.8 °F 56% 30.06 in - WSW 6.9 mph - N/A   Clear
10:30 PM 66.2 °F 53.6 °F 64% 30.06 in - WSW 8.1 mph - N/A   Clear
11:00 PM 66 °F 56 °F 61% 30.06 in - West 9.2 mph - -  
11:00 PM 66.2 °F 55.4 °F 68% 30.06 in - West 9.2 mph - N/A   Clear
11:30 PM 66.2 °F 55.4 °F 68% 30.06 in - West 10.4 mph - N/A   Clear